| time (UTC) | temp F | wind direction | speed MPH | gust MPH | rain 1hr in | rain 24hr in | rain mn in | humidity % | barometer mb |
| 20260906094608 | 65 | 0 | 0.0 | 0.0 | 0.00 | 0.00 | 0.00 | 58 | 1029.6 |
| 20260906093107 | 66 | 0 | 0.0 | 0.0 | 0.00 | 0.00 | 0.00 | 56 | 1029.8 |
| 20260906091604 | 67 | 0 | 0.0 | 0.0 | 0.00 | 0.00 | 0.00 | 55 | 1029.5 |
| 20260906090137 | 67 | 0 | 0.0 | 0.0 | 0.00 | 0.00 | 0.00 | 53 | 1029.5 |
| 20260906084627 | 68 | 0 | 0.0 | 0.0 | 0.00 | 0.00 | 0.00 | 53 | 1029.4 |
| 20260906083053 | 68 | 0 | 0.0 | 0.0 | 0.00 | 0.00 | 0.00 | 52 | 1029.3 |
| 20260906081602 | 69 | 0 | 0.0 | 0.0 | 0.00 | 0.00 | 0.00 | 51 | 1029.0 |
| 20260906080109 | 69 | 0 | 0.0 | 0.0 | 0.00 | 0.00 | 0.00 | 51 | 1029.0 |
| 20260906074601 | 69 | 0 | 0.0 | 0.0 | 0.00 | 0.00 | 0.00 | 50 | 1028.9 |
| 20260906073054 | 69 | 0 | 0.0 | 0.0 | 0.00 | 0.00 | 0.00 | 51 | 1028.9 |
| 20260906071553 | 70 | 0 | 0.0 | 0.0 | 0.00 | 0.00 | 0.00 | 52 | 1029.0 |
| 20260906070105 | 70 | 0 | 0.0 | 0.0 | 0.00 | 0.00 | 0.00 | 50 | 1028.8 |
| 20260906064556 | 71 | 0 | 0.0 | 0.0 | 0.00 | 0.00 | 0.00 | 50 | 1029.1 |
| 20260906063057 | 72 | 0 | 0.0 | 0.0 | 0.00 | 0.00 | 0.00 | 49 | 1029.2 |
| 20260906061604 | 72 | 0 | 0.0 | 0.0 | 0.00 | 0.00 | 0.00 | 49 | 1029.1 |
| 20260906060105 | 73 | 0 | 0.0 | 0.0 | 0.00 | 0.00 | 0.00 | 49 | 1029.2 |
| 20260906054603 | 74 | 0 | 0.0 | 1.0 | 0.00 | 0.00 | 0.00 | 48 | 1029.2 |
| 20260906053108 | 75 | 236 | 0.0 | 2.0 | 0.00 | 0.00 | 0.00 | 49 | 1029.3 |
| 20260906051608 | 75 | 252 | 3.0 | 8.0 | 0.00 | 0.00 | 0.00 | 44 | 1029.4 |
| 20260906044600 | 74 | 0 | 0.0 | 2.0 | 0.00 | 0.00 | 0.00 | 40 | 1029.9 |
| 20260906043104 | 74 | 0 | 0.0 | 0.0 | 0.00 | 0.00 | 0.00 | 40 | 1029.3 |
| 20260906041606 | 75 | 0 | 0.0 | 2.0 | 0.00 | 0.00 | 0.00 | 39 | 1028.8 |
| 20260906040101 | 75 | 0 | 0.0 | 1.0 | 0.00 | 0.00 | 0.00 | 38 | 1028.7 |
| 20260906034608 | 75 | 0 | 0.0 | 4.0 | 0.00 | 0.00 | 0.00 | 38 | 1028.6 |
| 20260906033053 | 74 | 0 | 0.0 | 1.0 | 0.00 | 0.00 | 0.00 | 37 | 1028.3 |
| 20260906031600 | 75 | 0 | 0.0 | 1.0 | 0.00 | 0.00 | 0.00 | 36 | 1028.2 |
| 20260906030059 | 75 | 0 | 0.0 | 1.0 | 0.00 | 0.00 | 0.00 | 37 | 1028.0 |
| 20260906024624 | 76 | 0 | 0.0 | 1.0 | 0.00 | 0.00 | 0.00 | 36 | 1027.7 |
| 20260906023101 | 77 | 0 | 0.0 | 1.0 | 0.00 | 0.00 | 0.00 | 33 | 1027.4 |
| 20260906021602 | 78 | 0 | 0.0 | 0.0 | 0.00 | 0.00 | 0.00 | 34 | 1027.3 |
| 20260906020106 | 80 | 0 | 0.0 | 0.0 | 0.00 | 0.00 | 0.00 | 34 | 1027.3 |
| 20260906014554 | 80 | 0 | 0.0 | 2.0 | 0.00 | 0.00 | 0.00 | 32 | 1027.0 |
| 20260906013053 | 81 | 0 | 0.0 | 1.0 | 0.00 | 0.00 | 0.00 | 33 | 1026.9 |
| 20260906011559 | 82 | 0 | 0.0 | 3.0 | 0.00 | 0.00 | 0.00 | 30 | 1027.1 |
| 20260906010127 | 84 | 274 | 0.0 | 4.0 | 0.00 | 0.00 | 0.00 | 28 | 1027.1 |
| 20260906004600 | 85 | 235 | 0.0 | 3.0 | 0.00 | 0.00 | 0.00 | 26 | 1027.0 |
| 20260906003054 | 86 | 0 | 0.0 | 2.0 | 0.00 | 0.00 | 0.00 | 26 | 1027.1 |
| 20260906001604 | 87 | 0 | 0.0 | 0.0 | 0.00 | 0.00 | 0.00 | 26 | 1027.0 |
| 20260906000104 | 89 | 0 | 0.0 | 1.0 | 0.00 | 0.00 | 0.00 | 23 | 1026.9 |
| 20260905234557 | 90 | 0 | 0.0 | 0.0 | 0.00 | 0.00 | 0.00 | 23 | 1026.8 |
| 20260905233053 | 91 | 0 | 0.0 | 2.0 | 0.00 | 0.00 | 0.00 | 22 | 1026.8 |
| 20260905231555 | 91 | 158 | 0.0 | 4.0 | 0.00 | 0.00 | 0.00 | 23 | 1026.8 |
| 20260905230125 | 92 | 0 | 1.0 | 7.0 | 0.00 | 0.00 | 0.00 | 20 | 1026.6 |
| 20260905224556 | 94 | 71 | 1.0 | 4.0 | 0.00 | 0.00 | 0.00 | 21 | 1026.6 |
| 20260905223055 | 93 | 0 | 0.0 | 3.0 | 0.00 | 0.00 | 0.00 | 20 | 1026.4 |
| 20260905221555 | 94 | 0 | 0.0 | 4.0 | 0.00 | 0.00 | 0.00 | 21 | 1026.6 |
| 20260905220104 | 94 | 5 | 1.0 | 5.0 | 0.00 | 0.00 | 0.00 | 21 | 1026.8 |
| 20260905214559 | 92 | 304 | 0.0 | 7.0 | 0.00 | 0.00 | 0.00 | 22 | 1026.9 |
| 20260905213057 | 94 | 59 | 2.0 | 7.0 | 0.00 | 0.00 | 0.00 | 20 | 1027.1 |
| 20260905211551 | 93 | 0 | 1.0 | 4.0 | 0.00 | 0.00 | 0.00 | 21 | 1027.3 |
| 20260905210059 | 93 | 233 | 0.0 | 7.0 | 0.00 | 0.00 | 0.00 | 20 | 1027.5 |
| 20260905204612 | 92 | 309 | 1.0 | 12.0 | 0.00 | 0.00 | 0.00 | 20 | 1027.7 |
| 20260905203103 | 93 | 110 | 1.0 | 6.0 | 0.00 | 0.00 | 0.00 | 20 | 1028.0 |
| 20260905201604 | 91 | 40 | 1.0 | 6.0 | 0.00 | 0.00 | 0.00 | 21 | 1028.0 |
| 20260905200108 | 91 | 0 | 0.0 | 4.0 | 0.00 | 0.00 | 0.00 | 21 | 1028.4 |
| 20260905194601 | 89 | 158 | 0.0 | 8.0 | 0.00 | 0.00 | 0.00 | 25 | 1028.4 |
| 20260905193110 | 90 | 315 | 2.0 | 5.0 | 0.00 | 0.00 | 0.00 | 23 | 1028.6 |
| 20260905191605 | 90 | 38 | 1.0 | 5.0 | 0.00 | 0.00 | 0.00 | 23 | 1028.8 |
| 20260905190103 | 89 | 251 | 1.0 | 8.0 | 0.00 | 0.00 | 0.00 | 23 | 1028.8 |
| 20260905184612 | 89 | 147 | 1.0 | 7.0 | 0.00 | 0.00 | 0.00 | 23 | 1028.9 |
| 20260905183115 | 90 | 0 | 1.0 | 6.0 | 0.00 | 0.00 | 0.00 | 25 | 1029.0 |
| 20260905181603 | 88 | 111 | 1.0 | 7.0 | 0.00 | 0.00 | 0.00 | 24 | 1029.0 |
| 20260905180105 | 86 | 323 | 0.0 | 7.0 | 0.00 | 0.00 | 0.00 | 29 | 1029.2 |
| 20260905174553 | 86 | 175 | 1.0 | 4.0 | 0.00 | 0.00 | 0.00 | 29 | 1029.3 |
| 20260905173054 | 84 | 0 | 0.0 | 1.0 | 0.00 | 0.00 | 0.00 | 33 | 1029.3 |
| 20260905171604 | 83 | 0 | 0.0 | 4.0 | 0.00 | 0.00 | 0.00 | 33 | 1029.2 |
| 20260905170109 | 84 | 0 | 1.0 | 6.0 | 0.00 | 0.00 | 0.00 | 30 | 1029.1 |
| 20260905164608 | 85 | 145 | 1.0 | 4.0 | 0.00 | 0.00 | 0.00 | 31 | 1029.1 |
| 20260905163105 | 84 | 93 | 1.0 | 6.0 | 0.00 | 0.00 | 0.00 | 30 | 1029.0 |
| 20260905161604 | 83 | 147 | 0.0 | 5.0 | 0.00 | 0.00 | 0.00 | 31 | 1028.9 |
| 20260905160101 | 82 | 0 | 0.0 | 3.0 | 0.00 | 0.00 | 0.00 | 31 | 1029.0 |
| 20260905154604 | 81 | 0 | 0.0 | 1.0 | 0.00 | 0.00 | 0.00 | 34 | 1029.0 |
| 20260905153105 | 79 | 0 | 0.0 | 0.0 | 0.00 | 0.00 | 0.00 | 33 | 1028.9 |
| 20260905151611 | 77 | 0 | 0.0 | 0.0 | 0.00 | 0.00 | 0.00 | 39 | 1028.9 |
| 20260905144602 | 76 | 0 | 0.0 | 0.0 | 0.00 | 0.00 | 0.00 | 39 | 1029.0 |
| 20260905143055 | 73 | 0 | 0.0 | 0.0 | 0.00 | 0.00 | 0.00 | 41 | 1029.0 |
| 20260905141602 | 70 | 0 | 0.0 | 0.0 | 0.00 | 0.00 | 0.00 | 48 | 1029.1 |
| 20260905140127 | 65 | 0 | 0.0 | 0.0 | 0.00 | 0.00 | 0.00 | 54 | 1028.8 |
| 20260905134605 | 63 | 0 | 0.0 | 0.0 | 0.00 | 0.00 | 0.00 | 58 | 1028.7 |
| 20260905133102 | 63 | 0 | 0.0 | 0.0 | 0.00 | 0.00 | 0.00 | 56 | 1028.6 |
| 20260905131558 | 62 | 0 | 0.0 | 0.0 | 0.00 | 0.00 | 0.00 | 54 | 1028.6 |
| 20260905130104 | 62 | 0 | 0.0 | 0.0 | 0.00 | 0.00 | 0.00 | 53 | 1028.5 |
| 20260905124605 | 63 | 0 | 0.0 | 0.0 | 0.00 | 0.00 | 0.00 | 52 | 1028.3 |
| 20260905123105 | 63 | 0 | 0.0 | 0.0 | 0.00 | 0.00 | 0.00 | 52 | 1028.1 |
| 20260905121554 | 63 | 0 | 0.0 | 0.0 | 0.00 | 0.00 | 0.00 | 50 | 1028.2 |
| 20260905120104 | 63 | 0 | 0.0 | 0.0 | 0.00 | 0.00 | 0.00 | 51 | 1028.1 |
| 20260905114559 | 63 | 0 | 0.0 | 0.0 | 0.00 | 0.00 | 0.00 | 51 | 1028.0 |
| 20260905113107 | 63 | 0 | 0.0 | 0.0 | 0.00 | 0.00 | 0.00 | 51 | 1027.9 |
| 20260905111601 | 64 | 0 | 0.0 | 0.0 | 0.00 | 0.00 | 0.00 | 51 | 1027.9 |
| 20260905110101 | 64 | 0 | 0.0 | 0.0 | 0.00 | 0.00 | 0.00 | 49 | 1027.9 |
| 20260905104612 | 65 | 0 | 0.0 | 0.0 | 0.00 | 0.00 | 0.00 | 48 | 1027.7 |
| 20260905103052 | 66 | 0 | 0.0 | 0.0 | 0.00 | 0.00 | 0.00 | 47 | 1027.4 |
| 20260905101604 | 66 | 0 | 0.0 | 0.0 | 0.00 | 0.00 | 0.00 | 45 | 1027.5 |
| 20260905100120 | 67 | 0 | 0.0 | 0.0 | 0.00 | 0.00 | 0.00 | 45 | 1027.5 |